DW8633 Weather Reports


Display with metric or nautical units.
time (UTC)temp
F
wind
direction
speed
MPH
gust
MPH
rain 1hr
in
rain 24hr
in
rain mn
in
humidity
%
barometer
mb
20260906162510 68 360 6.0 10.0 0.00 0.00 0.00 93 931.9
20260906162010 68 360 3.0 10.0 0.00 0.00 0.00 93 932.4
20260906161510 68 360 5.0 10.0 0.00 0.00 0.00 93 932.2
20260906161009 67 360 4.0 9.0 0.00 0.00 0.00 94 932.2
20260906160509 67 360 5.0 9.0 0.00 0.00 0.00 94 932.1
20260906160027 67 360 5.0 7.0 0.00 0.00 0.00 94 932.2
20260906155509 67 360 4.0 6.0 0.00 0.00 0.00 94 932.3
20260906155012 67 360 4.0 6.0 0.00 0.00 0.00 94 932.4
20260906154508 67 360 4.0 7.0 0.00 0.00 0.00 94 932.1
20260906154009 67 360 3.0 10.0 0.00 0.00 0.00 94 932.0
20260906153511 67 360 7.0 10.0 0.00 0.00 0.00 94 932.0
20260906153108 67 360 4.0 9.0 0.00 0.00 0.00 94 931.9
20260906152510 67 360 5.0 9.0 0.00 0.00 0.00 94 931.6
20260906152008 67 360 5.0 8.0 0.00 0.00 0.00 94 931.5
20260906151506 67 360 3.0 9.0 0.00 0.00 0.00 94 932.0
20260906151005 67 360 5.0 10.0 0.00 0.00 0.00 94 932.4
20260906150505 67 360 7.0 10.0 0.00 0.00 0.00 94 932.4
20260906150012 67 360 3.0 9.0 0.00 0.00 0.00 94 932.5
20260906145504 67 360 4.0 10.0 0.00 0.00 0.00 93 931.8
20260906145005 67 360 5.0 10.0 0.00 0.00 0.00 93 931.7
20260906144507 67 360 4.0 10.0 0.00 0.00 0.00 94 931.9
20260906144008 67 360 6.0 10.0 0.00 0.00 0.00 94 932.3
20260906143505 67 360 3.0 11.0 0.00 0.00 0.00 95 932.3
20260906142509 66 360 6.0 10.0 0.00 0.00 0.00 95 932.5
20260906142004 66 360 5.0 12.0 0.00 0.00 0.00 95 932.2
20260906141504 66 360 8.0 12.0 0.00 0.00 0.00 94 931.9
20260906141005 66 360 8.0 13.0 0.00 0.00 0.00 94 932.0
20260906140509 66 360 9.0 13.0 0.00 0.00 0.00 94 932.3
20260906140008 67 360 8.0 14.0 0.00 0.00 0.00 94 932.8
20260906135504 67 360 9.0 15.0 0.00 0.00 0.00 95 932.7
20260906135004 67 360 9.0 15.0 0.00 0.00 0.00 95 932.4
20260906134504 67 360 9.0 13.0 0.00 0.00 0.00 96 931.7
20260906134004 66 360 8.0 13.0 0.00 0.00 0.00 95 931.5
20260906133502 66 360 8.0 12.0 0.00 0.00 0.00 95 931.6
20260906132600 66 360 5.0 7.0 0.00 0.00 0.00 95 932.1
20260906132103 65 61 4.0 7.0 0.00 0.00 0.00 95 932.4
20260906132001 65 57 4.0 9.0 0.00 0.00 0.00 95 932.4
20260906131605 65 360 2.0 10.0 0.00 0.00 0.00 95 932.6
20260906131100 65 360 6.0 13.0 0.00 0.00 0.00 95 932.7
20260906130601 65 360 8.0 14.0 0.00 0.00 0.00 95 932.6
20260906130100 65 360 11.0 18.0 0.00 0.00 0.00 95 932.4
20260906125600 65 360 12.0 18.0 0.00 0.00 0.00 95 932.6
20260906125102 65 360 8.0 12.0 0.00 0.00 0.00 95 933.0
20260906124601 65 360 7.0 14.0 0.00 0.00 0.00 95 933.4
20260906124058 66 360 9.0 13.0 0.00 0.00 0.00 95 933.2
20260906123558 66 360 9.0 13.0 0.00 0.00 0.00 95 933.1
20260906123059 66 360 7.0 11.0 0.00 0.00 0.00 95 933.0
20260906122556 65 360 7.0 9.0 0.00 0.00 0.00 95 933.1
20260906122057 65 360 6.0 9.0 0.00 0.00 0.00 95 932.8
20260906121557 66 360 4.0 8.0 0.00 0.00 0.00 95 932.7
20260906121056 66 360 5.0 8.0 0.00 0.00 0.00 95 932.6
20260906120558 66 360 2.0 6.0 0.00 0.00 0.00 95 932.8
20260906120101 66 360 3.0 5.0 0.00 0.00 0.00 95 932.8
20260906115556 66 360 1.0 5.0 0.00 0.00 0.00 95 932.7
20260906115057 66 360 3.0 5.0 0.00 0.00 0.00 95 932.8
20260906114556 65 360 1.0 2.0 0.00 0.00 0.00 95 932.7
20260906114056 65 360 0.0 4.0 0.00 0.00 0.00 94 932.8
20260906113555 65 360 0.0 2.0 0.00 0.00 0.00 94 932.8
20260906113056 65 360 0.0 2.0 0.00 0.00 0.00 94 933.0
20260906112555 65 360 0.0 2.0 0.00 0.00 0.00 94 933.3
20260906112054 65 360 0.0 2.0 0.00 0.00 0.00 94 933.1
20260906111554 65 360 0.0 4.0 0.00 0.00 0.00 94 933.0
20260906111055 65 360 1.0 3.0 0.00 0.00 0.00 94 932.8
20260906110552 65 360 1.0 3.0 0.00 0.00 0.00 94 932.8
20260906110052 64 360 0.0 2.0 0.00 0.00 0.00 93 932.8
20260906105551 64 360 1.0 2.0 0.00 0.00 0.00 93 932.7
20260906105050 64 360 0.0 2.0 0.00 0.00 0.00 93 932.6
20260906104550 64 360 0.0 4.0 0.00 0.00 0.00 92 932.6
20260906104052 65 360 1.0 3.0 0.00 0.00 0.00 93 932.5
20260906103548 66 360 0.0 1.0 0.00 0.00 0.00 93 932.6
20260906103148 66 360 0.0 2.0 0.00 0.00 0.00 93 932.4
20260906102548 66 360 0.0 2.0 0.00 0.00 0.00 93 932.4
20260906102047 67 360 0.0 5.0 0.00 0.00 0.00 93 932.5
20260906101547 67 360 2.0 6.0 0.00 0.00 0.00 93 932.3
20260906101046 67 360 4.0 6.0 0.00 0.00 0.00 93 932.3
20260906100546 67 360 3.0 6.0 0.00 0.00 0.00 93 932.0
20260906100046 67 360 0.0 4.0 0.00 0.00 0.00 92 932.1
20260906095545 67 360 0.0 4.0 0.00 0.00 0.00 93 932.2
20260906095045 67 360 0.0 6.0 0.00 0.00 0.00 92 932.1
20260906094544 67 360 4.0 7.0 0.00 0.00 0.00 92 932.2
20260906094043 67 360 4.0 7.0 0.00 0.00 0.00 92 932.1
20260906093543 67 360 4.0 7.0 0.00 0.00 0.00 92 932.0
20260906093143 67 360 2.0 8.0 0.00 0.00 0.00 92 932.0
20260906092543 67 360 3.0 8.0 0.00 0.00 0.00 92 932.1
20260906092042 68 360 4.0 8.0 0.00 0.00 0.00 92 932.0
20260906091541 68 360 5.0 8.0 0.00 0.00 0.00 92 932.1
20260906091043 68 360 5.0 8.0 0.00 0.00 0.00 91 932.2
20260906090540 68 360 5.0 8.0 0.00 0.00 0.00 92 932.3
20260906090040 68 360 4.0 7.0 0.00 0.00 0.00 91 932.3
20260906085540 68 360 2.0 7.0 0.00 0.00 0.00 91 932.2
20260906085038 68 360 2.0 8.0 0.00 0.00 0.00 91 932.1
20260906084538 68 360 4.0 8.0 0.00 0.00 0.00 91 932.1
20260906084038 68 360 5.0 8.0 0.00 0.00 0.00 91 932.2
20260906083537 68 360 5.0 8.0 0.00 0.00 0.00 91 932.2
20260906083137 68 360 4.0 9.0 0.00 0.00 0.00 91 932.3
20260906082536 68 360 4.0 9.0 0.00 0.00 0.00 91 932.2
20260906082036 68 360 5.0 9.0 0.00 0.00 0.00 90 932.3
20260906081538 68 360 3.0 6.0 0.00 0.00 0.00 90 932.2
20260906081036 68 360 3.0 6.0 0.00 0.00 0.00 89 932.1
20260906080534 68 360 2.0 6.0 0.00 0.00 0.00 89 932.3
20260906080034 69 360 3.0 6.0 0.00 0.00 0.00 89 932.4
20260906075533 69 360 0.0 6.0 0.00 0.00 0.00 88 932.4
20260906075030 69 360 2.0 6.0 0.00 0.00 0.00 88 932.5
20260906074533 69 360 1.0 6.0 0.00 0.00 0.00 88 932.6
20260906074033 70 360 1.0 9.0 0.00 0.00 0.00 88 932.6
20260906073527 70 360 3.0 9.0 0.00 0.00 0.00 88 932.6
20260906073127 70 360 6.0 14.0 0.00 0.00 0.00 87 932.6
20260906072529 70 360 5.0 14.0 0.00 0.00 0.00 87 932.6
20260906072027 70 360 6.0 14.0 0.00 0.00 0.00 87 932.6
20260906071527 70 360 7.0 13.0 0.00 0.00 0.00 87 932.6
20260906071028 70 360 6.0 13.0 0.00 0.00 0.00 87 932.6
20260906070528 71 360 9.0 14.0 0.00 0.00 0.00 87 932.6
20260906070025 71 360 7.0 14.0 0.00 0.00 0.00 87 932.7
20260906065524 70 360 5.0 10.0 0.00 0.00 0.00 87 932.7
20260906065024 71 360 6.0 13.0 0.00 0.00 0.00 87 932.7
20260906064528 71 360 5.0 13.0 0.00 0.00 0.00 86 932.5
20260906064021 71 360 4.0 8.0 0.00 0.00 0.00 87 932.7
20260906063520 71 360 5.0 8.0 0.00 0.00 0.00 87 932.7
20260906063119 70 360 2.0 6.0 0.00 0.00 0.00 86 932.7
20260906062519 71 360 2.0 5.0 0.00 0.00 0.00 87 932.8
20260906062019 71 360 1.0 5.0 0.00 0.00 0.00 86 932.8
20260906061519 71 360 2.0 5.0 0.00 0.00 0.00 86 932.8
20260906061019 71 360 2.0 7.0 0.00 0.00 0.00 86 932.7
20260906060518 71 360 2.0 7.0 0.00 0.00 0.00 86 932.7
20260906060018 71 360 3.0 7.0 0.00 0.00 0.00 85 932.6
20260906055518 71 360 4.0 11.0 0.00 0.00 0.00 86 932.7
20260906055017 71 360 6.0 11.0 0.00 0.00 0.00 86 932.7
20260906054517 71 360 3.0 7.0 0.00 0.00 0.00 86 932.7
20260906054016 71 360 4.0 9.0 0.00 0.00 0.00 86 932.6
20260906053516 71 360 4.0 9.0 0.00 0.00 0.00 86 932.7
20260906053021 71 360 1.0 9.0 0.00 0.00 0.00 86 932.6
20260906052515 71 360 0.0 9.0 0.00 0.00 0.00 86 932.6
20260906052015 71 360 5.0 9.0 0.00 0.00 0.00 86 932.5
20260906051515 71 360 4.0 7.0 0.00 0.00 0.00 86 932.5
20260906051015 71 360 3.0 9.0 0.00 0.00 0.00 86 932.5
20260906050516 71 360 5.0 9.0 0.00 0.00 0.00 85 932.6
20260906050043 71 360 4.0 8.0 0.00 0.00 0.00 85 932.5
20260906045515 71 360 3.0 8.0 0.00 0.00 0.00 85 932.5
20260906045014 71 360 3.0 7.0 0.00 0.00 0.00 85 932.5
20260906044514 71 360 3.0 7.0 0.00 0.00 0.00 85 932.6
20260906044014 71 360 3.0 7.0 0.00 0.00 0.00 84 932.6
20260906043513 71 360 4.0 9.0 0.00 0.00 0.00 84 932.6
20260906043114 70 360 4.0 6.0 0.00 0.00 0.00 84 932.7
20260906042514 71 360 3.0 7.0 0.00 0.00 0.00 83 932.9
20260906042014 71 360 4.0 7.0 0.00 0.00 0.00 83 932.8
20260906041516 71 360 4.0 9.0 0.00 0.00 0.00 83 932.8
20260906041014 71 360 5.0 10.0 0.00 0.00 0.00 83 932.8
20260906040513 71 360 6.0 10.0 0.00 0.00 0.00 82 932.8
20260906040013 71 360 6.0 10.0 0.00 0.00 0.00 82 932.8
20260906035512 72 360 6.0 10.0 0.00 0.00 0.00 82 932.9
20260906035012 72 360 6.0 10.0 0.00 0.00 0.00 81 932.8
20260906034514 72 360 7.0 10.0 0.00 0.00 0.00 81 932.8
20260906034014 72 360 6.0 9.0 0.00 0.00 0.00 81 932.8
20260906033512 72 360 7.0 12.0 0.00 0.00 0.00 82 932.8
20260906033112 71 360 5.0 8.0 0.00 0.00 0.00 82 932.8
20260906032511 71 360 5.0 8.0 0.00 0.00 0.00 81 932.9
20260906032013 71 360 2.0 6.0 0.00 0.00 0.00 81 932.8
20260906031514 71 360 2.0 5.0 0.00 0.00 0.00 81 933.0
20260906031011 71 360 1.0 6.0 0.00 0.00 0.00 81 933.0
20260906030514 71 360 3.0 6.0 0.00 0.00 0.00 81 933.0
20260906030010 71 360 3.0 5.0 0.00 0.00 0.00 81 933.0
20260906025509 71 360 3.0 5.0 0.00 0.00 0.00 80 933.0
20260906025013 71 360 2.0 4.0 0.00 0.00 0.00 80 933.0
20260906024510 71 360 3.0 4.0 0.00 0.00 0.00 80 933.0
20260906024009 71 360 2.0 5.0 0.00 0.00 0.00 79 932.9
20260906023509 71 360 2.0 5.0 0.00 0.00 0.00 79 933.0
20260906023129 71 360 4.0 6.0 0.00 0.00 0.00 78 932.8
20260906022508 71 360 4.0 6.0 0.00 0.00 0.00 78 932.7
20260906022009 71 360 4.0 6.0 0.00 0.00 0.00 77 932.7
20260906021509 71 360 4.0 5.0 0.00 0.00 0.00 76 932.7
20260906021009 72 360 4.0 5.0 0.00 0.00 0.00 76 932.7
20260906020511 72 360 3.0 5.0 0.00 0.00 0.00 75 932.6
20260906020008 73 360 3.0 4.0 0.00 0.00 0.00 75 932.4
20260906015505 73 360 2.0 5.0 0.00 0.00 0.00 74 932.4
20260906015005 73 360 3.0 5.0 0.00 0.00 0.00 73 932.3
20260906014509 74 360 3.0 6.0 0.00 0.00 0.00 73 932.2
20260906014004 75 360 4.0 7.0 0.00 0.00 0.00 72 932.3
20260906013504 75 360 4.0 8.0 0.00 0.00 0.00 71 932.2
20260906013104 76 360 5.0 7.0 0.00 0.00 0.00 69 932.1
20260906012503 77 360 5.0 7.0 0.00 0.00 0.00 69 932.1
20260906012005 77 5 5.0 8.0 0.00 0.00 0.00 68 932.1
20260906011506 78 5 5.0 9.0 0.00 0.00 0.00 68 932.0
20260906011002 78 16 5.0 9.0 0.00 0.00 0.00 67 931.9
20260906010505 79 22 5.0 9.0 0.00 0.00 0.00 67 931.8
20260906010003 79 21 5.0 11.0 0.00 0.00 0.00 66 931.8
20260906005502 79 31 6.0 11.0 0.00 0.00 0.00 66 931.8
20260906005002 80 36 6.0 11.0 0.00 0.00 0.00 65 931.8
20260906004503 80 40 7.0 12.0 0.00 0.00 0.00 65 931.8
20260906004004 80 21 7.0 12.0 0.00 0.00 0.00 64 931.6
20260906003502 80 10 9.0 12.0 0.00 0.00 0.00 64 931.6
20260906003109 81 17 8.0 12.0 0.00 0.00 0.00 64 931.5
20260906002501 81 23 8.0 12.0 0.00 0.00 0.00 63 931.4
20260906002002 81 13 7.0 12.0 0.00 0.00 0.00 63 931.5
20260906001502 82 355 8.0 13.0 0.00 0.00 0.00 62 931.5
20260906001003 82 15 7.0 13.0 0.00 0.00 0.00 62 931.5
20260906000502 82 20 10.0 13.0 0.00 0.00 0.00 61 931.6
20260906000101 83 32 9.0 13.0 0.00 0.00 0.00 61 931.5
20260906000002 83 360 8.0 13.0 0.00 0.00 0.00 61 931.4
20260905235601 83 22 9.0 13.0 0.00 0.00 0.00 61 931.5
20260905235101 84 5 8.0 12.0 0.00 0.00 0.00 60 931.4
20260905234614 84 9 7.0 13.0 0.00 0.00 0.00 60 931.4
20260905234100 84 20 7.0 13.0 0.00 0.00 0.00 59 931.5
20260905233600 85 355 7.0 12.0 0.00 0.00 0.00 59 931.4
20260905233100 85 350 8.0 13.0 0.00 0.00 0.00 59 931.5
20260905232100 85 360 8.0 13.0 0.00 0.00 0.00 59 931.4
20260905231600 85 17 8.0 12.0 0.00 0.00 0.00 58 931.4
20260905231102 85 348 7.0 13.0 0.00 0.00 0.00 57 931.3
20260905230600 85 10 9.0 13.0 0.00 0.00 0.00 57 931.2
20260905230100 86 23 9.0 12.0 0.00 0.00 0.00 56 931.2
20260905225604 86 9 5.0 10.0 0.00 0.00 0.00 58 931.1
20260905225102 86 74 6.0 13.0 0.00 0.00 0.00 57 931.1
20260905224609 86 42 8.0 13.0 0.00 0.00 0.00 57 931.1
20260905224059 86 58 5.0 14.0 0.00 0.00 0.00 57 931.0
20260905223558 86 38 8.0 14.0 0.00 0.00 0.00 56 931.1
20260905223059 87 355 11.0 16.0 0.00 0.00 0.00 54 931.0
20260905222058 87 32 9.0 15.0 0.00 0.00 0.00 55 931.0
20260905221558 87 336 8.0 12.0 0.00 0.00 0.00 54 931.0
20260905221058 87 313 7.0 11.0 0.00 0.00 0.00 54 931.1
20260905220556 87 57 6.0 12.0 0.00 0.00 0.00 54 931.2
20260905220056 87 34 9.0 12.0 0.00 0.00 0.00 54 931.3
20260905215556 87 342 6.0 10.0 0.00 0.00 0.00 54 931.2
20260905215056 87 10 6.0 10.0 0.00 0.00 0.00 54 931.3
20260905214605 87 360 4.0 7.0 0.00 0.00 0.00 55 931.3
20260905214055 87 55 3.0 10.0 0.00 0.00 0.00 55 931.3
20260905213555 87 351 5.0 15.0 0.00 0.00 0.00 55 931.3
20260905213057 87 360 2.0 9.0 0.00 0.00 0.00 55 931.3
20260905212155 87 342 2.0 9.0 0.00 0.00 0.00 54 931.3
20260905211554 87 28 5.0 11.0 0.00 0.00 0.00 55 931.3
20260905211053 87 19 7.0 11.0 0.00 0.00 0.00 55 931.3
20260905210553 86 74 2.0 10.0 0.00 0.00 0.00 56 931.2
20260905210053 86 30 7.0 10.0 0.00 0.00 0.00 56 931.3
20260905205552 86 90 3.0 8.0 0.00 0.00 0.00 56 931.2
20260905205055 86 61 2.0 8.0 0.00 0.00 0.00 56 931.2
20260905204551 86 45 4.0 14.0 0.00 0.00 0.00 56 931.2
20260905204052 86 18 6.0 14.0 0.00 0.00 0.00 56 931.3
20260905203555 86 333 6.0 11.0 0.00 0.00 0.00 56 931.3
20260905203051 85 300 4.0 10.0 0.00 0.00 0.00 57 931.3
20260905202051 85 335 6.0 10.0 0.00 0.00 0.00 57 931.4
20260905201551 85 338 1.0 11.0 0.00 0.00 0.00 57 931.4
20260905201049 85 360 7.0 11.0 0.00 0.00 0.00 57 931.4
20260905200549 85 331 6.0 10.0 0.00 0.00 0.00 57 931.5
20260905200054 85 35 4.0 9.0 0.00 0.00 0.00 58 931.4
20260905195549 85 338 5.0 8.0 0.00 0.00 0.00 57 931.4
20260905195048 85 344 4.0 8.0 0.00 0.00 0.00 58 931.3
20260905194554 85 39 3.0 8.0 0.00 0.00 0.00 58 931.3
20260905194047 84 29 3.0 9.0 0.00 0.00 0.00 58 931.3
20260905193547 84 65 5.0 11.0 0.00 0.00 0.00 58 931.3
20260905193046 84 355 4.0 10.0 0.00 0.00 0.00 59 931.3
20260905192045 84 360 5.0 10.0 0.00 0.00 0.00 59 931.3
20260905191547 84 76 4.0 8.0 0.00 0.00 0.00 59 931.3
20260905191045 83 22 5.0 8.0 0.00 0.00 0.00 60 931.5
20260905190547 83 351 3.0 8.0 0.00 0.00 0.00 60 931.5
20260905190044 83 360 2.0 10.0 0.00 0.00 0.00 61 931.6
20260905185547 83 355 7.0 12.0 0.00 0.00 0.00 61 931.6
20260905185043 83 355 9.0 12.0 0.00 0.00 0.00 61 931.6
20260905184601 83 67 3.0 9.0 0.00 0.00 0.00 61 931.5
20260905184042 83 5 5.0 11.0 0.00 0.00 0.00 62 931.6
20260905183549 83 355 8.0 11.0 0.00 0.00 0.00 61 931.5
20260905183043 83 49 0.0 8.0 0.00 0.00 0.00 61 931.6
20260905182046 82 330 4.0 12.0 0.00 0.00 0.00 62 931.6
20260905181541 82 10 5.0 13.0 0.00 0.00 0.00 63 931.6
20260905181041 82 15 7.0 12.0 0.00 0.00 0.00 63 931.5
20260905180540 81 117 5.0 12.0 0.00 0.00 0.00 63 931.5
20260905180039 81 94 6.0 12.0 0.00 0.00 0.00 64 931.5
20260905175539 81 103 5.0 11.0 0.00 0.00 0.00 64 931.6
20260905175039 81 53 7.0 11.0 0.00 0.00 0.00 64 931.6
20260905174544 80 51 5.0 10.0 0.00 0.00 0.00 65 931.6
20260905174039 81 355 6.0 10.0 0.00 0.00 0.00 64 931.6
20260905173538 81 329 5.0 11.0 0.00 0.00 0.00 63 931.8
20260905173037 80 12 3.0 8.0 0.00 0.00 0.00 65 931.8
20260905172036 80 57 4.0 6.0 0.00 0.00 0.00 66 931.9
20260905171536 80 61 2.0 7.0 0.00 0.00 0.00 67 932.0
20260905171034 79 62 2.0 7.0 0.00 0.00 0.00 67 932.0
20260905170534 79 55 5.0 7.0 0.00 0.00 0.00 66 932.1
20260905170032 79 138 2.0 6.0 0.00 0.00 0.00 67 932.1
20260905165531 79 124 4.0 7.0 0.00 0.00 0.00 68 932.1
20260905165030 78 179 4.0 7.0 0.00 0.00 0.00 69 931.8
20260905164529 78 247 3.0 7.0 0.00 0.00 0.00 69 931.9
20260905164029 78 59 3.0 8.0 0.00 0.00 0.00 70 931.8
20260905163528 77 65 3.0 8.0 0.00 0.00 0.00 70 931.8
20260905163128 77 114 4.0 12.0 0.00 0.00 0.00 70 931.8